This demonstration page uses our WeatherBlox Daily Observations layout. Learn more.

38.89511, -77.03637

Hourly Observations for December 10, 2016

Temp ( °F °C ) Dew Point ( °F °C ) Humidity (%) Winds ( mph kmh ) Pressure ( in mb ) Visibility ( mi km ) Precip ( " mm )
12:52 am 00:52 Mostly Cloudy 32 0 16 -8.9 52 52 WNW 10 17 30.43 1031 10 16.0934 0 0
1:52 am 01:52 Cloudy 32 0 16 -8.9 52 52 WNW 12 19 30.44 1031 10 16.0934 0 0
2:52 am 02:52 Clear 32 0 16 -8.9 52 52 W 9 15 30.46 1032 10 16.0934 0 0
3:52 am 03:52 Partly Cloudy 31 -0.6 16 -8.9 54 54 W 7 11 30.47 1032 10 16.0934 0 0
4:52 am 04:52 Mostly Clear 31 -0.6 15 -9.4 52 52 W 7 11 30.46 1032 10 16.0934 0 0
5:52 am 05:52 Mostly Clear 30 -1.1 15 -9.4 54 54 SW 5 7 30.48 1032 10 16.0934 0 0
6:52 am 06:52 Mostly Clear 31 -0.6 14 -10 49 49 VRB 3 6 30.5 1033 10 16.0934 0 0
7:52 am 07:52 Partly Cloudy 31 -0.6 14 -10 49 49 WNW 9 15 30.51 1033 10 16.0934 0 0
8:52 am 08:52 Mostly Sunny 33 0.6 15 -9.4 47 47 NW 8 13 30.51 1033 10 16.0934 0 0
9:52 am 09:52 Mostly Sunny 35 1.7 14 -10 42 42 WNW 13 20 30.52 1034 10 16.0934 0 0
10:52 am 10:52 Mostly Sunny 36 2.2 14 -10 40 40 NNW 14 22 30.5 1033 10 16.0934 0 0
11:52 am 11:52 Partly Cloudy 37 2.8 13 -10.6 37 37 NW 14 22 30.48 1032 10 16.0934 0 0
12:52 pm 12:52 Partly Cloudy 38 3.3 14 -10 37 37 NW 14 22 30.46 1032 10 16.0934 0 0
1:52 pm 13:52 Partly Cloudy 38 3.3 13 -10.6 36 36 WNW 13 20 30.45 1031 10 16.0934 0 0
2:52 pm 14:52 Mostly Sunny 37 2.8 13 -10.6 37 37 NW 12 19 30.45 1031 10 16.0934 0 0
3:52 pm 15:52 Mostly Sunny 36 2.2 12 -11.1 37 37 NW 16 26 30.48 1032 10 16.0934 0 0
4:52 pm 16:52 Mostly Clear 33 0.6 12 -11.1 42 42 NNW 9 15 30.5 1033 10 16.0934 0 0
5:52 pm 17:52 Clear 33 0.6 12 -11.1 42 42 NNW 9 15 30.51 1033 10 16.0934 0 0
6:52 pm 18:52 Clear 32 0 12 -11.1 43 43 NNW 12 19 30.53 1034 10 16.0934 0 0
7:52 pm 19:52 Clear 32 0 13 -10.6 45 45 NNW 15 24 30.53 1034 10 16.0934 0 0
8:52 pm 20:52 Clear 31 -0.6 12 -11.1 45 45 NW 10 17 30.52 1034 10 16.0934 0 0
9:52 pm 21:52 Clear 30 -1.1 13 -10.6 49 49 NW 9 15 30.53 1034 10 16.0934 0 0
10:12 pm 22:12 Mostly Clear 30 -1 12 -11 47 47 NNW 8 13 30.53 1034 10 16.0934 0 0
10:52 pm 22:52 Mostly Clear 30 -1.1 13 -10.6 49 49 NW 9 15 30.54 1034 10 16.0934 0 0
11:52 pm 23:52 Mostly Cloudy 29 -1.7 14 -10 54 54 Calm 30.53 1034 10 16.0934 0 0

Powered by AerisWeather